Tracking 19245 objects as of 19-Aug-2018
HD Live streaming from Space Station
objects crossing your sky now

WESTFORD NEEDLES

Track WESTFORD NEEDLES now!
10-day predictions
WESTFORD NEEDLES is classified as:


NORAD ID: 19051
Int'l Code: 1963-014EA
Perigee: 2,864.6 km
Apogee: 4,403.0 km
Inclination: 87.2 °
Period: 166.0 minutes
Semi major axis: 10004 km
RCS: 0.357 m2 (medium)
Launch date: May 9, 1963
Source: United States (US)
Launch site: AIR FORCE WESTERN TEST RANGE (AFWTR)
aabbcc
Your satellite tracking list
Your tracking list is empty




NASA's NSSDC Master Catalog

Two Line Element Set (TLE):
1 19051U 63014EA  18229.50562932 +.00000222 +00000-0 +73606-1 0  9993
2 19051 087.2291 077.6836 0768805 085.4804 283.3388 08.67539059195256
Source of the keplerian elements: AFSPC